Theta_e
346 346 348 349 349 349 349 350 350 351 352 350 350 350 349 351 351 354 360 364 365 366 365 364 364 365 364 363 362 360 360 360 359 358 357 355 356 356 355 355 354 352 352 352 352 351 350 350 349 350 350 349 349 349 349 350 349 349 351 351 351 352 352
346 345 345 346 347 350 350 350 351 351 350 351 351 349 350 350 350 354 360 364 366 368 367 366 366 366 365 364 363 361 360 361 360 359 358 356 355 356 355 355 354 353 351 352 351 352 351 350 350 350 349 348 349 348 348 349 349 349 351 353 353 354 354
346 344 346 347 347 350 353 351 351 350 350 351 351 349 351 350 349 355 362 365 368 369 369 367 368 366 366 365 363 362 362 361 361 360 358 357 355 355 355 354 353 352 351 351 351 351 351 350 350 349 350 349 347 347 348 348 349 350 352 353 354 353 354
347 345 344 347 349 352 355 352 349 349 349 349 349 351 351 350 351 357 362 366 370 371 370 369 368 366 365 365 362 362 362 361 361 361 358 356 355 354 354 353 353 353 352 351 351 351 350 351 350 350 349 348 347 346 347 349 349 349 351 354 355 352 353
349 349 350 353 351 352 354 353 351 350 347 348 348 350 352 351 353 357 361 367 370 370 370 368 367 366 365 364 362 361 364 363 361 361 359 356 355 355 353 353 353 352 352 352 351 351 350 350 350 350 349 349 348 347 347 348 349 351 352 355 355 353 354
347 351 355 353 349 348 350 351 352 350 348 350 349 349 352 352 352 357 361 366 369 370 371 369 367 366 365 363 361 362 364 363 361 361 360 357 356 356 355 354 353 352 351 351 351 350 350 349 349 349 349 348 348 347 345 347 348 350 352 354 353 352 352
351 355 355 354 349 347 347 348 350 349 349 352 349 349 351 351 353 358 361 364 367 370 372 371 368 366 364 362 362 363 364 364 361 360 360 357 356 356 354 353 352 352 352 351 351 350 349 349 349 348 348 348 348 348 346 346 347 349 350 351 351 349 349
354 358 354 355 353 347 348 352 350 348 351 352 351 350 351 351 353 357 363 366 370 372 372 371 368 365 363 362 362 363 363 363 361 361 359 357 356 355 354 352 353 351 351 351 351 352 350 350 350 350 350 350 349 348 347 345 345 347 349 349 349 349 349
360 365 358 355 355 352 355 357 352 351 355 354 352 352 354 357 355 358 365 368 370 374 371 369 368 365 362 362 361 362 362 361 361 360 358 356 354 355 354 354 352 351 353 353 353 352 351 352 352 352 352 351 349 349 349 348 346 346 347 348 348 350 350
369 376 370 359 361 362 359 356 355 356 359 355 353 356 358 359 360 360 365 368 369 371 370 368 366 363 360 361 361 360 358 357 359 358 357 355 354 355 356 355 353 353 356 357 355 356 355 354 352 351 351 352 352 351 352 351 350 348 348 348 348 349 350
369 369 365 359 363 364 357 358 361 359 358 356 356 360 359 360 366 365 366 370 370 369 369 367 365 362 361 359 358 357 355 354 355 355 356 355 354 355 356 355 354 354 354 355 356 355 354 353 352 350 350 351 353 354 353 353 352 351 350 349 349 350 350
371 360 360 360 364 362 362 369 369 361 359 358 358 362 363 364 368 368 367 369 368 367 369 366 363 362 361 359 358 357 354 353 353 353 353 354 355 357 358 356 356 355 354 354 355 356 356 355 353 352 351 351 352 354 353 352 353 352 351 351 351 352 352
368 355 363 371 366 364 371 375 371 366 366 363 360 362 367 368 368 368 368 368 367 367 365 362 360 359 357 356 355 354 353 353 352 350 350 351 353 356 358 356 354 355 355 357 358 358 358 357 356 354 354 354 353 354 353 353 352 351 351 352 352 353 353
365 353 361 373 371 370 373 373 373 373 369 365 363 363 368 369 369 369 367 365 364 362 358 356 355 355 355 355 354 352 352 352 352 352 352 351 352 354 357 356 355 355 357 358 357 355 355 356 356 355 355 355 354 353 353 353 353 352 353 354 353 353 353
367 357 359 366 370 372 372 372 375 373 367 365 365 366 366 365 366 365 361 359 357 355 353 353 354 354 356 355 354 352 352 352 353 354 354 354 355 356 357 356 356 357 357 356 353 354 356 357 357 356 356 356 355 354 353 353 353 352 353 354 354 353 353
364 365 362 360 365 372 370 370 372 370 367 365 363 365 363 362 363 361 358 355 352 351 353 354 355 355 356 355 353 352 353 354 354 354 355 356 356 356 355 356 356 356 355 353 353 356 358 357 358 358 356 356 355 355 355 354 354 353 353 354 354 354 353
360 366 362 355 364 373 369 369 371 369 368 367 363 363 363 361 362 361 358 353 351 353 355 354 354 353 352 353 351 352 355 355 353 354 355 356 355 353 354 355 356 356 355 355 355 356 357 357 357 358 356 356 356 355 354 354 353 354 354 354 353 352 352
357 360 359 355 364 373 369 369 370 367 367 366 363 363 363 362 362 362 359 356 354 356 354 352 351 351 350 351 352 355 356 353 353 355 355 355 353 352 354 355 356 357 356 356 357 357 357 356 357 357 357 356 356 355 354 354 353 353 353 353 352 352 351
354 355 358 356 361 369 368 368 368 366 365 364 363 362 362 361 362 362 359 357 356 356 353 352 352 352 354 355 356 357 356 353 354 356 356 356 354 353 353 355 357 357 356 356 357 358 357 356 356 356 355 355 354 353 353 353 353 352 353 353 352 351 351
353 351 353 351 356 366 369 367 367 365 363 363 361 361 362 361 361 361 359 357 356 355 354 354 354 355 357 358 357 357 356 355 357 357 358 358 356 355 356 356 357 357 357 357 357 357 357 357 356 356 355 354 353 353 352 352 352 352 353 353 353 352 352
357 355 356 354 354 362 368 367 366 365 362 361 361 361 361 361 360 359 360 360 359 358 357 357 357 356 356 355 356 356 356 357 357 357 358 357 357 356 357 356 357 357 357 357 357 356 357 356 356 356 355 354 354 353 352 351 352 352 352 352 352 351 352
357 360 366 362 349 353 367 368 364 363 362 359 361 362 361 361 360 360 360 360 358 358 359 360 358 357 355 354 354 354 356 357 358 357 358 357 357 357 357 357 357 357 357 357 357 356 355 355 356 355 354 354 353 353 352 352 353 352 352 352 352 352 352
353 353 360 357 344 347 361 365 362 362 360 359 360 360 359 360 359 359 360 359 359 359 360 359 358 356 355 354 354 355 356 356 356 357 357 357 357 357 357 357 357 357 356 355 355 356 355 354 355 354 354 354 353 353 353 353 353 353 352 354 353 351 351
350 352 354 352 348 349 354 360 361 360 359 359 359 358 359 359 359 359 360 360 359 358 359 359 358 357 356 355 355 355 355 355 356 357 356 356 357 357 357 357 357 356 355 354 354 356 356 356 355 354 354 354 354 354 354 353 353 353 353 353 351 350 350
347 350 352 351 351 351 352 357 360 359 360 360 358 357 359 359 360 361 360 358 357 356 357 358 358 357 355 355 355 355 355 356 357 356 357 356 356 356 357 356 356 356 355 355 356 355 356 354 353 352 353 353 353 354 353 353 352 352 352 351 349 349 347
345 346 350 352 350 350 354 359 360 358 360 360 359 360 359 358 360 361 359 357 356 357 358 357 357 356 355 354 356 356 357 357 357 357 357 357 356 355 356 356 355 355 355 356 355 354 353 352 351 350 351 352 353 352 351 352 352 351 350 349 347 346 344
345 345 347 348 349 351 355 358 358 359 361 361 361 360 359 360 361 360 359 357 356 357 357 355 355 356 356 355 356 357 358 358 357 357 356 355 354 354 355 355 354 354 354 355 354 353 353 353 351 350 351 351 351 349 349 350 349 348 347 345 344 344 342
346 345 343 347 351 353 354 356 358 359 361 362 360 360 360 360 360 359 358 357 357 358 356 355 356 357 356 356 357 356 357 356 355 355 354 354 354 354 354 354 354 354 353 353 353 353 353 353 351 350 350 349 347 347 347 347 346 346 345 344 343 342 342
350 348 346 350 354 354 354 356 358 360 361 360 360 360 360 360 359 358 357 357 357 358 356 356 356 356 356 357 356 356 356 355 355 354 354 354 354 354 353 353 353 352 352 351 352 352 351 350 350 349 349 348 347 347 348 347 345 345 344 342 341 341 340
351 351 351 353 354 355 355 356 358 360 359 358 358 359 360 359 358 357 357 357 356 356 356 356 356 356 356 357 356 355 355 354 353 352 352 352 353 352 352 351 351 351 351 350 351 350 350 350 350 350 350 348 347 347 347 347 347 345 344 341 339 338 338
351 353 351 351 352 355 356 356 357 358 357 357 357 358 359 359 358 358 358 357 357 357 357 357 356 356 355 354 354 353 352 352 350 348 348 349 350 349 349 349 349 350 350 350 350 350 350 350 349 349 348 347 347 347 347 347 347 346 345 342 339 338 338
349 350 350 350 353 357 358 358 358 357 357 357 357 358 359 359 359 360 358 357 357 357 356 356 356 355 353 352 350 349 348 348 346 346 347 347 347 347 346 347 348 348 349 349 348 347 348 348 348 347 346 346 346 346 346 345 346 347 347 344 342 341 341
347 349 353 355 358 359 360 359 358 358 357 356 356 358 359 358 358 359 357 356 356 356 355 355 354 353 351 349 347 346 346 345 344 344 344 345 345 345 344 345 345 345 346 347 347 347 348 347 347 347 346 346 346 346 346 345 345 346 347 344 343 342 341
349 353 359 361 360 359 358 358 357 356 356 356 356 355 356 356 356 356 355 354 354 354 356 355 353 351 349 346 345 345 344 343 343 343 342 342 344 344 344 345 345 346 347 347 346 345 345 344 344 344 343 344 345 344 345 345 344 343 343 341 340 338 337
357 361 364 361 359 357 357 356 356 355 355 355 354 353 353 353 353 353 353 353 354 355 354 352 351 349 347 344 343 343 344 342 342 343 342 343 344 344 343 343 344 347 348 346 343 342 341 341 341 341 340 342 343 343 343 344 342 340 339 338 336 335 334
362 363 361 358 355 355 356 355 355 354 356 355 353 353 353 352 352 352 352 354 355 353 352 351 348 345 344 343 343 343 343 341 342 343 343 344 345 345 344 343 342 343 345 343 341 340 339 338 338 338 337 339 341 340 340 340 339 338 338 337 335 334 334
360 358 357 354 354 355 356 356 356 356 356 355 354 354 354 353 354 354 354 354 354 353 352 350 346 342 343 345 345 344 344 343 343 345 345 346 347 346 346 345 344 343 343 342 341 340 338 337 337 336 336 338 338 338 338 338 338 338 338 338 337 336 335
351 352 353 351 348 347 349 353 357 357 356 356 355 354 354 353 354 353 353 354 354 352 351 351 348 347 348 348 346 346 346 346 346 346 347 347 347 346 346 346 346 345 344 343 342 341 340 338 339 339 339 338 337 337 338 338 338 338 338 337 338 337 335
Wind_Speed
14 15 15 15 14 13 13 14 16 16 15 16 18 23 26 23 22 22 25 29 28 26 26 25 25 24 24 23 21 21 20 18 19 18 17 16 15 14 15 14 15 16 16 16 17 17 16 15 15 15 16 18 19 19 19 18 17 17 16 15 15 13 12
13 13 14 14 15 14 15 17 19 20 18 16 18 20 19 21 23 22 23 27 27 27 27 26 26 25 24 24 22 22 21 20 19 19 18 18 17 16 16 15 15 16 17 16 16 17 17 15 15 15 14 17 18 19 19 19 18 17 16 16 15 14 14
11 11 12 13 14 13 14 15 16 20 22 21 21 19 17 20 24 23 24 27 27 26 27 26 26 25 23 22 22 22 22 20 20 20 18 18 18 17 17 17 16 15 16 16 15 16 17 16 16 16 15 15 16 18 19 18 18 18 18 17 16 15 15
11 10 10 11 13 11 11 15 17 19 21 25 26 24 23 25 26 26 27 27 27 26 26 26 25 24 23 23 23 23 21 20 19 19 18 17 17 16 16 17 17 16 17 17 16 15 15 14 14 15 16 16 16 16 16 17 17 18 19 18 17 16 16
11 10 9 6 10 11 9 12 16 19 19 21 22 21 23 22 22 27 28 28 29 28 26 27 26 23 23 25 25 23 21 21 19 18 17 17 16 16 16 17 17 17 17 16 15 15 14 14 15 15 16 17 17 16 14 15 16 17 18 18 17 16 16
10 8 6 5 8 10 9 11 15 17 18 19 20 20 20 20 19 23 27 27 28 26 24 25 25 23 25 28 25 21 20 21 21 19 18 18 18 17 17 17 16 16 16 16 16 15 15 16 16 15 15 16 17 17 15 15 15 16 18 19 19 17 16
8 5 6 6 8 10 11 12 18 21 17 18 23 24 24 26 24 23 24 25 26 26 23 22 24 25 27 27 24 21 22 23 22 21 18 18 18 18 18 17 16 16 17 17 16 15 15 16 17 16 15 15 15 15 16 15 16 17 18 19 20 20 19
7 3 4 3 7 11 8 7 16 21 17 17 21 21 22 25 25 22 21 22 22 23 23 23 25 26 25 26 24 22 23 23 21 21 19 18 18 19 19 17 15 16 17 17 17 16 15 15 15 15 15 14 13 13 13 14 16 17 17 18 19 19 18
9 3 0 3 5 8 5 2 8 13 15 18 17 16 17 21 23 22 20 20 21 22 24 25 26 26 26 26 25 23 22 22 20 19 19 18 17 17 17 16 15 14 14 15 15 15 14 13 13 14 15 14 13 13 13 12 13 15 16 18 18 17 17
9 4 4 3 3 4 6 5 7 9 11 16 16 14 17 19 18 19 19 19 21 23 26 27 26 29 30 28 24 23 21 19 18 18 17 17 15 15 15 15 15 13 11 11 11 11 11 11 11 12 13 13 14 14 14 13 13 13 14 16 17 17 17
9 5 9 8 6 7 10 8 8 9 9 13 13 13 19 18 16 18 19 20 23 26 27 27 27 28 29 27 24 24 21 18 18 16 13 12 13 14 15 14 14 14 13 11 10 8 9 12 13 13 13 13 13 14 15 15 14 14 14 14 15 16 17
8 6 11 10 7 9 10 6 8 12 12 14 14 13 17 18 16 18 20 20 23 26 24 24 26 25 22 21 20 18 17 15 14 10 7 9 9 9 11 11 10 11 11 11 9 8 9 10 12 13 13 13 13 14 15 15 15 16 16 15 13 12 15
7 8 9 7 7 7 8 5 8 11 11 15 15 12 13 15 15 16 19 18 18 21 20 17 14 10 6 4 4 5 6 7 9 9 10 13 12 8 9 10 8 6 6 7 8 9 10 11 11 12 12 12 13 14 14 15 16 17 17 18 18 16 15
8 9 10 6 7 6 8 8 8 9 11 14 12 11 10 10 11 11 12 12 11 10 8 5 9 10 5 4 7 10 10 8 10 12 12 15 15 13 12 11 9 6 5 6 8 9 11 12 13 14 14 13 13 14 13 14 15 16 17 18 19 20 19
5 8 9 3 9 9 8 9 9 9 12 13 9 9 9 7 8 8 8 8 4 5 11 11 7 9 14 16 15 14 11 9 10 13 12 14 15 13 11 9 8 7 7 8 8 8 9 11 11 11 12 12 12 12 11 12 14 16 17 17 18 20 21
7 5 2 5 7 11 10 9 10 10 13 15 13 12 12 11 11 12 11 9 8 8 10 10 13 17 18 17 14 11 8 7 9 12 12 13 12 10 10 9 9 9 8 8 9 10 10 11 10 9 9 9 9 10 10 12 14 14 15 16 17 17 17
6 7 5 7 7 9 11 9 11 11 12 15 16 16 15 13 14 15 14 15 13 14 15 15 15 15 15 15 13 10 8 8 10 12 12 10 9 8 9 8 8 8 8 8 10 11 11 11 10 9 9 9 9 10 11 12 13 13 14 16 17 15 13
4 8 8 4 7 7 12 10 11 11 12 14 14 14 14 13 13 15 17 17 16 15 14 14 14 15 15 14 13 10 10 11 12 11 10 9 9 9 9 8 8 8 9 9 10 11 10 10 9 8 8 7 7 9 10 13 14 14 13 13 14 13 12
5 7 9 1 8 5 11 9 11 12 12 14 14 13 14 14 13 15 16 16 15 14 13 13 14 15 15 14 14 12 11 13 12 10 9 10 10 10 10 9 8 9 10 9 10 9 8 7 7 6 6 6 7 8 9 11 14 13 11 10 11 11 12
6 8 11 3 9 5 10 8 11 15 13 14 15 14 14 16 16 16 16 14 13 12 12 13 14 14 13 13 12 11 10 10 10 9 9 9 10 10 10 9 9 9 9 9 8 8 7 7 6 6 6 7 9 11 11 11 11 12 11 11 12 12 11
9 8 10 5 9 6 9 11 11 15 15 15 16 16 15 17 18 17 16 14 13 12 13 14 13 12 12 11 10 9 8 8 8 9 9 9 9 9 9 9 8 7 8 7 6 7 7 7 6 6 7 9 10 11 11 10 10 12 12 11 12 11 10
10 8 8 7 4 10 4 14 13 14 16 16 17 17 16 17 18 17 15 14 13 12 12 13 13 12 12 11 10 9 8 8 8 9 9 9 8 8 9 8 7 7 8 7 6 6 6 6 6 6 7 9 10 10 10 9 10 11 10 9 9 9 8
13 11 8 12 9 8 5 11 14 14 16 16 16 17 17 17 18 18 15 13 12 10 10 11 11 11 11 10 10 9 8 7 7 7 7 7 7 7 8 8 7 7 8 7 6 6 5 5 5 5 7 8 9 9 9 9 10 10 8 7 6 7 8
15 16 13 13 12 4 5 8 13 13 15 16 16 17 18 18 18 18 15 12 11 10 10 10 9 9 10 10 10 9 8 7 6 6 6 6 6 6 6 6 6 6 6 6 6 5 5 5 5 5 6 8 8 8 8 8 8 8 6 5 5 5 7
12 15 16 15 15 9 7 8 12 13 14 16 16 16 18 18 18 17 15 12 11 11 9 9 9 9 8 10 10 9 8 7 6 5 5 5 4 4 4 4 4 4 4 5 5 4 4 4 5 5 5 6 5 5 6 6 6 5 3 3 4 5 6
12 12 14 15 17 14 10 9 13 14 14 15 15 15 17 18 17 16 15 12 9 8 7 8 9 9 8 8 8 8 8 7 5 4 3 3 2 2 2 3 2 3 3 4 4 4 3 3 3 3 5 5 4 4 4 3 3 2 1 3 4 6 6
15 15 15 15 16 15 12 11 12 13 14 15 16 16 16 16 16 16 15 12 7 5 6 9 10 10 9 9 8 7 7 6 5 5 4 3 2 2 1 1 1 1 1 2 2 3 2 1 2 4 3 2 2 3 2 2 2 1 1 4 6 6 5
15 16 16 15 15 14 13 12 13 14 15 15 16 16 16 16 16 16 15 13 9 7 7 10 11 11 11 10 9 8 8 7 6 7 6 5 4 3 3 2 2 1 1 1 2 3 2 1 1 1 2 2 1 1 1 3 4 3 3 5 6 6 5
14 16 17 15 14 14 14 14 14 15 16 16 16 16 16 16 16 16 15 15 13 11 9 9 10 11 11 11 10 9 9 8 7 7 6 5 4 3 2 2 1 1 2 2 3 3 3 2 2 1 1 1 1 1 2 4 4 3 4 7 6 5 5
14 18 19 16 14 16 16 16 15 15 14 15 15 15 16 16 16 16 16 16 15 14 12 10 10 10 10 10 9 9 8 8 7 6 6 6 5 4 3 2 2 1 2 2 3 3 3 3 2 3 3 3 2 0 2 3 2 3 5 6 6 7 8
17 20 20 17 16 17 16 16 16 15 15 15 15 15 16 17 18 17 17 17 17 15 14 13 11 10 10 9 8 8 7 6 5 5 5 6 5 4 4 4 3 2 1 1 2 3 3 3 4 4 5 4 3 1 2 2 3 3 3 5 6 7 9
15 19 21 20 18 17 17 17 16 15 15 15 15 15 16 16 17 17 16 16 16 15 14 13 12 11 10 9 9 9 8 7 6 6 5 4 3 3 4 4 3 2 3 4 4 4 5 4 4 5 6 5 3 1 1 1 2 3 2 3 4 5 7
12 15 19 20 20 19 18 17 16 15 16 15 14 15 16 15 15 16 16 16 15 14 14 13 12 11 10 9 8 8 8 6 5 5 5 4 3 2 3 3 2 3 5 4 2 2 3 3 3 4 5 4 3 2 2 1 2 3 2 2 3 4 5
11 14 20 23 22 20 18 16 16 15 14 14 14 14 14 14 14 14 14 14 13 13 14 12 11 10 9 8 7 6 5 5 4 3 3 3 2 1 1 2 1 1 1 1 4 4 5 5 5 5 6 3 1 3 4 4 5 5 3 2 3 5 5
11 15 21 23 21 18 17 16 17 17 15 14 14 14 13 14 14 14 12 12 12 12 12 11 10 9 8 8 8 6 6 5 5 3 3 1 3 5 4 4 4 4 4 4 5 5 6 6 6 7 8 7 5 5 6 4 4 4 5 5 6 6 5
17 17 18 21 20 19 18 17 16 16 17 15 14 14 14 14 13 13 12 12 11 10 9 9 8 6 5 5 5 4 3 2 3 3 2 3 2 5 3 4 4 3 2 2 5 6 6 5 5 6 7 6 4 5 5 4 5 7 7 7 6 5 5
11 15 17 17 15 13 14 18 19 16 15 15 15 14 14 14 13 13 12 11 10 8 6 6 6 4 2 3 7 9 6 4 5 4 3 6 5 2 1 1 1 1 1 2 3 5 5 5 5 5 6 5 3 6 7 7 7 8 8 8 8 7 7
13 6 18 24 22 16 11 8 13 17 15 14 14 14 14 13 13 12 11 10 9 8 6 5 5 5 5 5 8 9 8 7 7 5 3 4 4 2 1 1 3 3 4 3 1 1 2 2 2 4 5 5 4 6 7 7 7 8 9 9 9 9 8
Wind_Direction
193 193 190 187 192 192 185 190 186 179 185 186 184 184 181 181 185 178 171 176 180 177 178 182 183 185 187 187 190 191 192 195 194 197 200 201 203 204 205 208 212 216 214 210 214 221 227 224 217 212 208 213 219 222 224 227 231 236 237 237 240 245 246
194 197 197 191 189 187 184 184 178 178 186 186 190 189 174 175 182 174 170 177 179 178 178 182 185 186 188 188 189 192 193 193 193 194 197 200 203 206 208 211 215 218 221 219 213 214 223 226 225 223 216 215 220 221 221 223 228 232 234 234 236 241 242
200 200 204 194 185 184 176 170 178 187 181 173 186 195 178 179 186 179 177 179 178 179 178 181 186 186 187 189 190 192 195 194 193 193 197 200 203 206 207 212 218 220 222 225 220 215 220 222 222 226 227 227 229 226 218 219 227 229 228 230 231 235 240
202 199 213 195 174 176 165 163 184 196 185 179 187 187 172 175 186 186 183 180 177 178 180 182 185 185 186 191 192 192 194 196 195 194 198 201 203 206 209 212 216 220 222 224 222 216 216 220 221 226 232 232 237 237 224 216 224 227 225 227 228 231 237
189 190 220 205 165 169 170 167 178 186 191 193 183 169 166 170 179 184 183 180 179 180 183 185 185 186 188 192 193 192 193 197 197 195 198 201 200 205 213 215 214 217 223 224 222 217 213 217 223 225 228 229 232 240 235 220 220 224 223 224 227 230 234
175 183 210 202 168 167 176 173 173 184 196 193 172 163 176 180 183 186 180 176 180 180 180 182 184 186 190 194 195 192 192 196 196 197 200 201 201 205 211 215 212 215 223 225 224 220 215 219 224 222 223 228 230 233 234 226 221 223 223 222 225 230 233
154 198 218 199 169 166 185 180 175 187 194 180 172 176 183 183 185 186 177 177 182 181 179 180 183 188 192 195 194 192 193 195 196 199 202 203 204 205 207 212 214 215 221 225 224 222 219 222 227 227 226 226 227 230 234 231 223 222 225 223 223 227 232
121 172 214 173 152 161 180 180 173 183 180 162 167 178 178 177 183 182 174 175 177 174 178 183 186 190 193 194 197 197 196 197 198 199 202 207 208 208 210 213 215 218 223 225 224 222 222 224 226 227 227 226 226 231 240 241 232 226 227 229 228 227 232
81 60 54 107 146 156 150 162 164 165 159 155 167 178 171 171 180 179 171 172 174 176 184 188 187 191 193 193 197 200 197 197 199 200 203 207 207 211 214 214 216 218 219 219 219 221 223 226 228 228 229 233 236 239 248 254 248 239 235 235 236 234 236
69 5 294 174 196 170 152 178 163 142 145 157 168 173 169 170 174 174 172 174 178 183 188 190 190 194 195 193 194 197 196 196 198 199 202 207 211 214 214 213 217 216 207 204 207 210 217 228 242 249 245 240 239 242 247 253 254 253 247 242 242 242 240
68 329 259 205 199 173 167 182 171 161 159 158 167 167 166 172 170 169 174 175 181 189 190 191 193 193 194 193 192 191 190 194 200 199 196 201 211 220 218 214 216 214 210 213 214 214 226 234 242 253 253 246 243 244 247 251 255 256 256 254 252 246 241
67 298 246 186 160 154 161 172 157 164 163 158 169 163 156 167 166 165 174 179 186 191 191 195 195 190 191 193 189 189 190 191 195 199 204 208 215 223 221 218 214 208 209 215 218 221 236 240 237 239 242 242 247 248 247 249 251 253 257 258 259 257 252
69 289 254 153 134 141 141 131 133 149 144 141 157 159 152 165 166 166 174 176 185 192 195 199 191 168 169 175 154 180 197 172 152 158 190 211 223 226 218 218 214 202 195 197 204 217 230 238 241 242 239 239 246 250 249 248 248 250 252 250 252 259 261
63 285 264 152 143 149 139 136 132 137 125 121 144 157 149 156 157 157 166 171 186 194 177 125 81 85 112 165 166 170 177 168 142 135 157 187 207 218 220 221 217 209 209 209 216 232 238 238 242 244 242 238 241 247 250 249 247 245 246 248 251 255 259
123 247 261 175 159 153 146 151 143 137 130 125 143 153 143 152 157 152 157 169 172 82 79 84 107 167 188 189 181 167 162 168 147 127 140 169 184 194 198 193 185 189 207 221 226 232 234 237 241 243 243 240 242 249 251 250 250 248 248 252 257 258 261
175 186 333 291 203 154 147 153 141 138 139 141 154 157 154 164 166 159 151 139 126 116 130 161 180 188 191 187 176 159 152 171 157 142 152 173 180 176 170 170 178 187 200 219 227 225 226 232 237 241 247 248 251 256 258 259 262 261 259 259 262 265 268
174 126 89 280 243 144 138 145 136 140 143 145 155 154 149 155 155 148 137 134 149 171 180 180 169 166 175 181 175 160 160 180 175 159 159 177 187 173 164 178 193 197 204 219 229 232 234 236 236 241 249 253 258 265 268 269 266 262 262 263 265 268 272
157 112 97 284 268 141 135 139 134 139 140 137 141 137 133 137 135 127 126 140 161 174 170 165 159 153 155 164 164 158 167 177 172 163 161 177 187 174 171 189 204 211 217 225 231 234 238 239 237 244 253 259 270 278 281 281 276 269 266 265 262 262 267
136 114 97 324 271 162 132 136 136 134 133 132 132 132 133 134 127 121 129 144 155 158 155 154 153 147 142 149 156 159 168 169 164 162 165 174 181 179 182 194 205 213 216 221 228 232 237 240 238 246 258 263 269 270 269 278 286 287 285 279 273 272 275
92 102 94 33 276 198 134 133 135 130 129 129 127 128 131 128 124 125 131 135 136 143 150 146 142 142 141 144 149 152 159 161 160 164 165 168 176 181 187 194 203 214 215 216 224 229 233 237 234 235 244 248 253 256 255 258 271 278 278 280 282 284 286
88 92 89 50 300 263 138 132 135 131 130 129 126 127 129 127 125 126 125 124 128 141 147 138 133 135 136 140 144 146 154 160 161 163 163 168 177 184 194 200 203 210 214 215 224 230 231 232 231 236 245 248 249 252 254 253 260 270 273 274 277 278 282
115 115 111 112 286 285 174 135 138 134 129 128 128 129 133 132 128 126 123 126 140 152 143 127 126 132 137 143 148 151 158 161 159 162 165 171 181 191 200 203 202 208 213 215 221 231 232 227 224 235 248 254 252 250 254 263 274 280 280 280 281 279 282
128 129 133 140 164 261 249 142 136 133 130 132 133 133 134 134 131 129 129 136 148 151 135 123 128 137 141 144 149 152 157 161 164 168 170 174 186 199 204 205 205 213 219 216 216 226 230 225 225 233 244 252 256 257 260 270 278 281 287 297 297 294 295
131 133 138 143 144 190 244 164 140 137 136 134 133 132 132 134 134 132 133 141 152 151 140 130 129 133 135 138 142 148 150 156 167 172 172 182 193 197 203 207 208 216 222 216 217 226 226 225 231 236 244 253 264 272 275 280 283 282 286 296 298 305 312
120 127 132 133 131 145 209 184 145 140 139 133 133 135 135 136 137 135 136 148 162 161 149 134 130 134 139 138 141 145 144 151 162 165 171 187 190 187 199 211 214 221 222 219 229 240 232 234 246 260 273 275 274 280 284 284 284 283 283 288 300 316 318
128 133 130 127 131 147 182 176 148 144 139 132 134 138 138 137 137 136 139 151 166 164 145 129 127 131 133 131 133 137 138 145 153 153 164 175 165 168 188 200 217 239 241 242 259 267 252 234 228 246 284 295 296 303 298 273 248 247 295 306 312 318 315
135 132 122 122 136 149 161 165 157 147 138 137 140 140 139 138 136 135 136 145 164 166 142 129 124 126 127 124 126 132 135 139 138 131 131 131 129 139 143 140 183 252 263 282 307 301 271 234 191 192 212 250 290 324 320 228 212 222 307 306 315 329 337
139 127 119 129 145 148 152 163 159 144 140 145 145 141 139 137 135 136 136 141 154 156 139 128 125 128 131 127 128 131 131 129 126 122 122 121 121 125 114 96 86 65 23 333 335 322 308 345 10 162 154 170 214 285 246 241 263 295 323 326 329 337 338
136 128 129 141 149 148 156 164 157 147 148 150 144 141 142 139 138 139 139 139 143 145 140 134 129 129 130 129 131 132 130 130 126 120 123 123 116 112 104 93 82 41 11 349 346 340 344 12 18 18 24 246 232 203 214 238 266 314 344 347 352 0 359
138 136 138 144 153 162 168 163 152 147 147 145 142 142 143 140 137 135 133 134 138 140 140 137 131 128 125 125 129 128 129 136 137 133 137 136 130 134 133 121 110 72 22 351 347 343 337 339 325 305 304 294 287 244 203 222 264 326 355 9 28 46 43
140 138 139 147 159 165 160 148 145 148 145 143 144 142 140 138 134 131 130 134 138 140 140 139 138 135 131 130 134 135 138 145 143 132 133 135 142 154 151 145 149 152 170 242 259 257 260 267 271 274 273 264 252 233 209 223 254 282 335 28 48 53 46
142 143 146 153 157 149 140 140 148 151 145 143 142 136 134 134 132 130 132 137 139 140 140 141 141 142 144 148 148 143 141 144 140 129 130 142 152 157 162 166 168 176 212 232 239 245 248 251 267 282 281 274 270 246 222 254 261 247 272 9 25 29 25
161 157 144 139 138 138 140 147 153 150 144 143 140 136 137 137 134 135 139 141 142 141 141 142 145 150 156 155 147 139 141 147 146 141 151 174 194 201 197 195 192 214 235 253 299 331 303 290 300 305 295 279 270 275 284 3 85 116 119 63 14 360 9
170 152 131 129 139 148 151 153 151 147 141 137 136 136 138 137 137 139 141 140 138 138 140 144 148 152 152 144 135 139 152 156 156 169 181 175 161 135 139 133 107 131 189 19 26 13 344 345 5 4 350 342 338 332 347 56 87 86 74 40 338 335 345
146 132 127 134 146 152 151 150 146 141 135 131 134 139 140 139 140 140 137 132 131 137 145 153 156 154 149 147 149 161 174 163 156 191 244 226 120 114 91 67 64 78 79 40 14 358 340 342 357 0 357 7 24 12 12 42 53 15 357 345 332 328 323
133 128 134 145 152 150 145 140 134 131 131 130 133 135 133 131 131 130 127 127 132 140 148 151 150 146 145 143 129 126 158 165 137 156 284 340 93 131 97 43 51 81 88 1 354 355 345 340 343 347 357 15 20 360 355 355 345 341 342 337 330 322 317
124 141 140 130 121 118 122 126 126 123 121 120 121 121 118 116 114 113 115 120 126 132 132 127 124 115 96 56 44 51 56 45 54 71 21 1 23 91 123 85 105 120 310 328 355 1 359 6 10 4 15 31 4 336 342 347 343 339 338 332 324 318 319
356 113 115 99 87 72 53 77 115 116 111 112 114 112 109 108 106 106 111 114 116 119 113 101 98 88 69 51 41 46 55 51 44 51 38 2 5 13 350 217 204 207 222 232 240 16 5 9 14 8 14 19 354 334 339 345 341 331 325 323 321 320 323